Tracking 31027 objects as of 19-Jul-2025
HD Live streaming from Space Station
objects crossing your sky now

FENGYUN 1C DEB

Track FENGYUN 1C DEB now!
10-day predictions


NORAD ID: 31931
Int'l Code: 1999-025CMG
Perigee: 791.4 km
Apogee: 1,424.6 km
Inclination: 97.8 °
Period: 107.3 minutes
Semi major axis: 7479 km
RCS: 0.0158 m2 (small)
Launch date: May 10, 1999
Source: People's Republic of China (PRC)
Launch site: Taiyaun Space Center, China (TSC)

Note: This is SATELLITE DEBRIS
Your satellite tracking list
STARLINK-2062
Track 1 satellite(s)




NASA's NSSDC Master Catalog

Two Line Element Set (TLE):
1 31931U 99025CMG 25197.67377341  .00000331  00000-0  37977-3 0  9997
2 31931  97.7913 181.3986 0423272 297.2515  58.6100 13.42260345632227
Source of the keplerian elements: AFSPC